Regional Weather Roundup
Issued by NWS

Home | Current Version | Previous Version | Text Only | Print | Product List | Glossary Off
Versions: 1 2 3 4 5 6 7 8 9 10 11 12 13 14 15 16 17 18 19 20 21 22 23 24 25 26 27 28 29 30 31 32 33 34 35 36 37 38 39 40 41 42 43 44 45 46 47 48 49 50

752
ASUS45 KBOU 220307
RWRCO

WEATHER ROUNDUP FOR COLORADO
NATIONAL WEATHER SERVICE DENVER/BOULDER CO
900 PM MDT SUN MAY 21 2017

NOTE: "FAIR" INDICATES FEW OR NO CLOUDS BELOW 12000 FEET WITH NO
SIGNIFICANT WEATHER AND/OR OBSTRUCTIONS TO VISIBILITY.

COZ001>005-013-030-031-220400-
...NORTHWEST COLORADO...

CITY           SKY/WX    TMP DP  RH WIND       PRES   REMARKS
CRAIG          CLOUDY    50  38  63 SE5       30.25R
HAYDEN         MOCLDY    45  36  70 SE9       30.27R
MEEKER         LGT RAIN  48  43  82 NE5       30.26R
RABBIT EARS PA SNOW      32  32 100 E7        30.37S VSB 1/2 WCI  26
STEAMBOAT SPGS CLOUDY    45  39  79 SE5       30.28R
WALDEN           N/A     34  32  93 SE6       30.33S WCI  29
$$

COZ006>008-011-220400-
...WEST CENTRAL VALLEYS...

CITY           SKY/WX    TMP DP  RH WIND       PRES   REMARKS
GRAND JUNCTION CLOUDY    59  40  49 NW5       30.17R
MONTROSE       CLOUDY    58  36  43 W9        30.23R
EAGLE          CLOUDY    55  34  45 E9        30.23R
RIFLE          LGT RAIN  57  38  48 NW6       30.20R
DELTA          CLOUDY    62  37  38 SW8G20    30.19R
NUCLA          FAIR      52  41  66 CALM      30.26R
$$

COZ017>023-064>068-220400-
...SOUTHWEST COLORADO...

CITY           SKY/WX    TMP DP  RH WIND       PRES   REMARKS
DURANGO        FAIR      56  29  35 NE7       30.17R
CORTEZ         FAIR      55  38  52 E6        30.20R
PAGOSA SPRINGS MOCLDY    55  26  31 NW3       30.22S
TELLURIDE      CLOUDY    44  34  68 NW7       30.37R
WOLF CREEK PAS FAIR      34  23  64 SW8G18    30.45S WCI  27
$$

COZ009-010-012-014-032>034-037-058>063-220400-
...CENTRAL COLORADO...

CITY           SKY/WX    TMP DP  RH WIND       PRES   REMARKS
ASPEN          RAIN      43  37  79 NW8       30.29R
BUENA VISTA    CLOUDY    53  27  35 NW8       30.23R
COPPER MTN     LGT SNOW  34  30  86 MISG      30.42R
BERTHOUD PASS  SNOW      27  16  63 SW12      30.41S VSB 1/2 WCI  16
COTTONWOOD PAS CLOUDY    46  27  46 W7G16     30.32R
GUNNISON       FAIR      54  29  38 W7        30.24R
KREMMLING      CLOUDY    45  39  81 NW6       30.32R
LEADVILLE      CLOUDY    39  26  59 N5        30.31R
MONARCH PASS   LGT SNOW  32  30  93 SW13      30.52R WCI  22
SALIDA         CLOUDY    57  28  33 CALM      30.29R
SUNLIGHT       LGT RAIN  32  30  93 W9G18     30.40S WCI  24
WILKERSON PASS MOCLDY    32  30  93 E6        30.41R WCI  26
$$

COZ069>075-220400-
...SAN LUIS VALLEY/SANGRE DE CRISTO MOUNTAINS...

CITY           SKY/WX    TMP DP  RH WIND       PRES   REMARKS
ALAMOSA        MOCLDY    57  28  33 N9        30.19R
DEL NORTE      CLOUDY    53  28  37 N6        30.23R
LA VETA PASS   FAIR      37  32  81 NE16G25   30.44R
SAGUACHE       RAIN      48  36  61 NW15G22   30.27R
$$

COZ035-036-038>040-220400-
...NORTHERN COLORADO FRONT RANGE...

CITY           SKY/WX    TMP DP  RH WIND       PRES   REMARKS
DENVER INTL AP LGT RAIN  50  42  74 N8        30.24R
DMNS CITY PARK   N/A     50  43  78 NE6G14    30.25S
AURORA         LGT RAIN  48  45  90 N6        30.26R
FRONT RANGE AP CLOUDY    50  45  81 N7        30.25R
ERIE MUNI ARPT LGT RAIN  49  45  88 CALM      30.24R
BOULDER MUN AP MOCLDY    50  45  81 CALM      30.24R
CENTENNIAL     LGT RAIN  49  45  86 N12       30.26R
BROOMFIELD     LGT RAIN  48  45  87 NW12      30.24R
FORT COLLINS   FAIR      48  44  86 E3        30.23R
LONGMONT       CLOUDY    53  42  66 CALM      30.25R
$$

COZ041-046-047-076>085-087-088-220400-
...PIKES PEAK/PALMER DIVIDE AND SOUTHERN FOOTHILLS...

CITY           SKY/WX    TMP DP  RH WIND       PRES   REMARKS
COLO. SPRINGS  MOCLDY    54  41  61 N18       30.23R
A. F. ACADEMY  MOCLDY    49  40  70 N9        30.26R
SCHRIEVER AFB  LGT RAIN  50  41  71 N18G26    30.24R
CHEYENNE MTN   MOCLDY    49  39  68 NW18G25   30.19R
ELLICOTT       LGT RAIN N/A N/A N/A NE20G31   30.21R
FALCON         CLOUDY    47  39  73 N13G18    30.28R
FORT CARSON    MOCLDY    56  40  55 N24       30.20R
LIMON          FAIR      47  44  90 N14       30.21R
MONUMENT HILL  MOCLDY    43  39  87 N7        30.29R
CANON CITY     NOT AVBL
WALSENBURG     FAIR      57  39  51 E10       30.18R
TRINIDAD       CLOUDY    58  38  47 SE6       30.16R
$$

COZ042>045-048>051-090-091-220400-
...NORTHEAST COLORADO...

CITY           SKY/WX    TMP DP  RH WIND       PRES   REMARKS
GREELEY ARPT   MOCLDY    51  46  83 NW7       30.23R
AKRON          CLOUDY    50  46  86 N6        30.20R
BURLINGTON     FAIR      53  46  77 SE12      30.13S
WRAY           MOCLDY    52  46  82 N6        30.17R
YUMA           NOT AVBL
STERLING       FAIR      50  48  93 CALM      30.18R
HOLYOKE        NOT AVBL
FORT MORGAN    RAIN      50  46  87 NE5       30.22R
$$

COZ086-089-092>099-220400-
...SOUTHEAST COLORADO...

CITY           SKY/WX    TMP DP  RH WIND       PRES   REMARKS
PUEBLO         FAIR      62  40  44 E8        30.12R
LA JUNTA       FAIR      61  48  62 E15       30.10R
LAMAR          FAIR      58  48  69 SE17      30.09R
SPRINGFIELD      N/A     54  47  77 S20G26    30.13R
$$




USA.gov is the U.S. government's official web portal to all federal, state and local government web resources and services.